Showing default

BRO-8, 55011

Orbit data source: Space-Track

BRO-8, 55011 is a payload satellite owned by Unseen Labs (FR) in SSO that was launched on Tue, 03 Jan 2023 UTC via an FALCON 9 launch vehicle from the Air Force Eastern Test Range (AFETR). Payload-class satellites include a variety of spacecraft equipped with specific instruments for various scientific and technological missions. These include communications satellites like Starlink; space stations such as the ISS; scientific satellites like the Hubble; Earth observation satellites from companies like Planet Labs, Umbra, and HawkEye 360; GPS; miniature CubeSats for education and research; and military/defense satellites.

Loading next visibility...
Identifier
55011, 2023-001C
Orbit
SSO
Country
Flag of FRFR
Related business
Manufacturer
GOMSpace
Mission
Operational Commercial Sigint
Bus & Motor
CUBESAT 6U, Unknown motor
Mass
10 kg wet, ~10 kg dry
Launch date (UTC)
2023-01-03 (3 years ago)
Launch vehicle
FALCON 9
Launch site
Air Force Eastern Test Range (AFETR)
Object type
Payload
Rocket body
Debris
Shape & HBR
Box, 0.1 m
Radar Cross Section
0.080 m², Medium (>0.1 m² and < 1m²)

Expand to show TLE details & history
Last TLE update: 22 hours ago

TLE from 22 hours ago
0 BRO-8
1 55011U 23001C   25348.93240256  .00017073  00000-0  45828-3 0  9999
2 55011  97.3524  47.7018 0008501  72.1780 288.0391 15.37977518163789
Epoch: 2025-12-14T22:22Z
TLE epoch observation values (Epoch: 2025-12-14T22:22:39.581Z)
Latitude
-0.00008°
Longitude
-11.80134°
Altitude
453.413 km
Speed
7.641 km/s
True Right ascension
03h 10m 48s
True Declination
0° 00' 00"
Sunlit
Object was in full shadow at epoch
Visualization orbit readout
Latitude
Unknown
Longitude
Unknown
Altitude
Unknown
Speed
Unknown
Apparent Right ascension
Unknown
Apparent Declination
Unknown
Sunlit
N/A
Visualization observer readout
Local Sidereal Time
19:04:18
Azimuth
Unknown
Elevation
Unknown
Doppler factor
Unknown
Orbital elements
Apogee altitude
454.834 km
Perigee altitude
443.227 km
Semi-major axis
6,827.167 km
Eccentricity
0.00085
Inclination
97.3524°
RAAN
47.7018°
Arg. of periapsis
72.178°
True anomaly
287.94644°
Mean anomaly
288.0391°
Eccentric anomaly
287.99277°
Mean motion
3.84753 °/min
Orbital period
93.57 mins
BSTAR
0.00045828
Loading maneuver chart data...
Computing Atmospheric mass density...
Loading historical data...
Loading historical data...
Loading historical data...
Loading historical data...
Loading historical data...
Loading historical data...
Loading historical data...

Documentation

Showing up to 5 results
|